[[{"header":{"parameterUnit":"m.s-1","parameterCategory":1,"la1":30.2991,"la2":30.254,"lo1":-89.0895,"lo2":-89.0444,"dy":0.0017,"dx":0.0017,"nx":28,"ny":28,"refTime":"2023-04-30T15:00:00:Z","depth":0,"parameterNumber":2,"parameterNumberName":"U-component_of_WINDS"},"data":[0,0,0,0,0,0,0,0,0,0,0,0,0,0,0,0,0,0,0,0,0,0,0,0,0,0,0,0,0,0,0,0,0,0,0,0,0,0,0,0,0,0,0,0,0,0,0,0,0,0,0,0,0,0,0,0,0,0,2.1481,2.1481,0,2.1479,2.1479,2.1479,2.1499,2.1499,2.15,2.15,2.1497,2.1496,2.1495,0,0,0,0,0,0,0,0,0,0,0,0,0,2.1504,2.1504,2.1481,2.1481,2.1481,2.1479,2.1479,2.1479,2.1499,2.1499,2.15,2.1501,2.1497,2.1496,2.1495,0,0,0,0,0,0,0,0,0,0,0,0,0,2.1497,2.1503,2.1481,2.1491,2.1492,2.1479,2.1479,2.1479,2.1498,2.1499,2.15,2.1501,2.1497,2.1496,2.1495,2.1473,0,0,2.1492,2.1492,0,0,0,0,0,0,0,0,2.1497,2.1496,2.149,2.149,2.1491,2.149,2.1486,2.1477,2.1498,2.1496,2.15,2.1501,2.1494,2.1493,2.1491,2.1473,2.1472,2.1492,2.1492,2.1491,2.1491,0,0,0,0,0,0,0,2.1498,2.1496,2.148,2.1489,2.149,2.1496,2.1496,2.1484,2.149,2.1496,2.1498,2.1497,2.1494,2.1492,2.1491,2.1472,2.1492,2.1492,2.1491,2.1491,2.1438,2.1437,0,0,0,0,0,0,2.1497,2.1497,2.148,2.148,2.1497,2.1495,2.1494,2.149,2.149,2.1491,2.1496,2.1498,2.1493,2.1492,2.1491,2.1465,2.1491,2.1491,2.149,2.1439,2.1438,2.1437,0,0,0,0,0,0,2.1498,2.1496,2.1481,2.1489,2.1487,2.1493,2.1488,2.1489,2.1486,2.1491,2.1492,2.1492,2.1493,2.1492,2.1478,2.1465,2.149,2.1489,2.144,2.1439,2.1437,2.1413,0,0,0,0,0,0,2.1498,2.1496,2.1486,2.1489,2.1487,2.1467,2.1487,2.1488,2.1485,2.1487,2.1487,2.1488,2.1494,2.1479,2.1477,2.1464,2.1489,2.1441,2.1439,2.1438,2.1415,2.1411,2.1408,0,0,0,0,0,2.1499,2.1479,2.1486,2.1484,2.1476,2.1466,2.1465,2.1473,2.1484,2.1475,2.1478,2.1488,2.1468,2.1477,2.1475,2.1462,2.1442,2.144,2.1438,2.1416,2.1412,2.1408,0,0,0,0,0,0,2.1474,2.1479,2.1487,2.1467,2.1466,2.1469,2.1458,2.1467,2.1463,2.1465,2.1475,2.1475,2.1459,2.1459,2.147,2.1442,2.1457,2.1454,2.1441,2.1437,2.1433,2.1432,2.1488,0,0,0,0,0,2.1466,2.1458,2.1463,2.1445,2.1445,2.1452,2.1448,2.1454,2.1453,2.1453,2.1455,2.1453,2.1447,2.1442,2.1437,2.1416,2.1417,2.1407,2.1403,2.14,2.1397,2.1388,2.1383,2.1431,2.1431,2.1431,0,0,2.145,2.1452,2.1446,2.1441,2.144,2.1432,2.1451,2.1441,2.1435,2.1451,2.1437,2.144,2.1439,2.1422,2.1414,2.1422,2.1385,2.1398,2.1395,2.1394,2.1385,2.1381,2.1377,2.1429,2.143,2.143,0,0,2.1415,2.1416,2.1402,2.1402,2.1403,2.1408,2.1405,2.1407,2.141,2.1397,2.1409,2.1403,2.1391,2.1391,2.1389,2.1359,2.1367,2.1357,2.1337,2.1328,2.1324,2.1321,2.131,2.1306,2.1354,2.1354,2.1354,0,2.1394,2.1382,2.1393,2.1383,2.138,2.1397,2.1383,2.1383,2.1381,2.1379,2.1388,2.1375,2.1376,2.136,2.1353,2.1351,2.1348,2.1355,2.1324,2.1321,2.1318,2.1307,2.1303,2.1353,2.1353,2.1353,2.1353,0,2.1357,2.1348,2.1337,2.1336,2.1332,2.132,2.133,2.1326,2.1334,2.1339,2.1326,2.1329,2.1324,2.1321,2.1328,2.1307,2.1311,2.1322,2.1337,2.1312,2.1302,2.1298,2.1351,2.1351,2.1352,2.1352,0,0,2.1302,2.131,2.1306,2.1306,2.131,2.1303,2.1293,2.129,2.1286,2.1286,2.1277,2.1269,2.128,2.1278,2.1286,2.1278,2.1254,2.129,2.129,2.1282,2.1231,2.1221,2.1216,2.1261,2.1261,2.126,2.123,0,2.1268,2.125,2.1261,2.1242,2.1234,2.1252,2.1244,2.1245,2.125,2.1246,2.1252,2.1245,2.126,2.1259,2.1253,2.1258,2.1243,2.1261,2.1253,2.1253,2.125,2.1211,2.1201,2.1172,2.1227,2.1226,2.1226,0,2.1224,2.1223,2.1203,2.121,2.1208,2.1199,2.1198,2.1194,2.1197,2.1201,2.1201,2.1212,2.1203,2.122,2.1209,2.122,2.1219,2.1221,2.1221,2.1218,2.1236,2.1207,2.1163,2.1159,2.122,2.122,2.1221,0,2.1186,2.118,2.1167,2.1167,2.1175,2.1169,2.1172,2.1176,2.1174,2.1174,2.1173,2.1172,2.1171,2.117,2.1181,2.1192,2.1168,2.1186,2.1172,2.1171,2.1163,2.1163,2.1117,2.1165,2.1165,2.1165,2.1165,0,2.1145,2.1132,2.115,2.1142,2.1128,2.1143,2.1129,2.1135,2.1139,2.1133,2.1149,2.1143,2.1158,2.1155,2.1163,2.1153,2.1152,2.1156,2.1158,2.1153,2.1153,2.115,2.1152,2.1164,2.1165,2.1165,2.1165,0,2.1098,2.111,2.1097,2.1107,2.111,2.1099,2.1108,2.1101,2.111,2.1102,2.1101,2.1113,2.111,2.1121,2.112,2.1126,2.111,2.1116,2.1109,2.111,2.1095,2.1095,2.1044,2.1038,2.1091,2.1091,2.109,0,2.107,2.106,2.107,2.1068,2.107,2.1066,2.1065,2.108,2.1078,2.1083,2.1076,2.1075,2.1073,2.1068,2.1076,2.1076,2.1081,2.1064,2.1081,2.1077,2.108,2.108,2.1079,2.1059,2.1058,2.1058,2.1058,0,2.1019,2.1026,2.1024,2.1024,2.1023,2.1024,2.1026,2.1023,2.104,2.1037,2.1035,2.1034,2.1034,2.1032,2.1034,2.1038,2.105,2.1053,2.1049,2.1043,2.1039,2.104,2.1097,2.1053,2.1053,2.1054,2.1054,2.1054,2.098,2.0973,2.0979,2.0976,2.098,2.0983,2.0978,2.0986,2.0984,2.0985,2.0995,2.0991,2.0997,2.1001,2.1005,2.1002,2.101,2.1005,2.1003,2.1001,2.0998,2.1041,2.1002,2.1003,2.1003,2.1003,2.1003,0,2.0928,2.0934,2.0932,2.0936,2.0934,2.0949,2.0953,2.095,2.0946,2.0951,2.0951,2.0949,2.0948,2.0959,2.096,2.0956,2.0962,2.0955,2.0955,2.0956,2.0991,2.0994,2.0951,2.0951,2.0951,2.0951,2.0951,2.0951,2.0901,2.089,2.0899,2.0891,2.0897,2.0893,2.0894,2.0897,2.0902,2.0898,2.0898,2.0906,2.0914,2.0916,2.0917,2.092,2.0919,2.091,2.0915,2.0948,2.0953,2.0958,2.096,2.091,2.091,2.088,2.088,2.0879]},{"header":{"parameterUnit":"m.s-1","parameterCategory":1,"la1":30.2991,"la2":30.254,"lo1":-89.0895,"lo2":-89.0444,"dy":0.0017,"dx":0.0017,"nx":28,"ny":28,"refTime":"2023-04-30T15:00:00:Z","depth":0,"parameterNumber":3,"parameterNumberName":"V-component_of_WINDS"},"data":[0,0,0,0,0,0,0,0,0,0,0,0,0,0,0,0,0,0,0,0,0,0,0,0,0,0,0,0,0,0,0,0,0,0,0,0,0,0,0,0,0,0,0,0,0,0,0,0,0,0,0,0,0,0,0,0,0,0,0.634,0.6342,0,0.6534,0.6536,0.6539,0.6561,0.6559,0.6557,0.6555,0.676,0.6767,0.6774,0,0,0,0,0,0,0,0,0,0,0,0,0,0.5992,0.5999,0.634,0.6342,0.6345,0.6534,0.6536,0.6539,0.6561,0.6559,0.6556,0.6554,0.6758,0.6766,0.6775,0,0,0,0,0,0,0,0,0,0,0,0,0,0.6161,0.6001,0.6339,0.6378,0.6384,0.6533,0.6537,0.654,0.6562,0.6559,0.6556,0.6553,0.6755,0.6765,0.6776,0.6902,0,0,0.6809,0.6814,0,0,0,0,0,0,0,0,0.6151,0.6173,0.637,0.6376,0.6382,0.652,0.6489,0.6662,0.6562,0.6494,0.6555,0.6552,0.6683,0.67,0.6743,0.6912,0.692,0.681,0.6817,0.6822,0.6825,0,0,0,0,0,0,0,0.6139,0.6165,0.6417,0.6373,0.638,0.6387,0.6408,0.6522,0.6603,0.65,0.6502,0.6524,0.6686,0.6732,0.6748,0.6923,0.681,0.682,0.6826,0.6831,0.7205,0.7208,0,0,0,0,0,0,0.612,0.6155,0.6411,0.6423,0.6257,0.6396,0.6419,0.6479,0.6602,0.6617,0.6527,0.6525,0.6715,0.6735,0.6755,0.691,0.6822,0.6832,0.6838,0.7201,0.7205,0.7209,0,0,0,0,0,0,0.6112,0.6142,0.6403,0.629,0.6323,0.6405,0.6472,0.6484,0.6531,0.6622,0.6637,0.6559,0.6713,0.674,0.6865,0.6917,0.6837,0.6847,0.7197,0.7203,0.7207,0.7221,0,0,0,0,0,0,0.6102,0.6139,0.6187,0.629,0.6329,0.6508,0.6475,0.649,0.6549,0.6548,0.6656,0.6671,0.6713,0.6848,0.6875,0.6931,0.6855,0.7193,0.72,0.7206,0.7216,0.7226,0.7234,0,0,0,0,0,0.609,0.6185,0.6189,0.622,0.639,0.6511,0.6533,0.6578,0.6553,0.6602,0.666,0.6668,0.6907,0.6861,0.6892,0.6951,0.719,0.7198,0.7205,0.7212,0.7224,0.7234,0,0,0,0,0,0,0.6088,0.6199,0.6206,0.6337,0.6414,0.6514,0.6578,0.6589,0.6677,0.6673,0.6726,0.675,0.6873,0.6925,0.6872,0.7079,0.7046,0.706,0.7041,0.7053,0.7062,0.7047,0.6864,0,0,0,0,0,0.6102,0.619,0.6283,0.6389,0.6427,0.6496,0.655,0.6578,0.6661,0.6694,0.6762,0.6844,0.6937,0.6998,0.7089,0.7223,0.7247,0.728,0.7288,0.7295,0.7307,0.7381,0.7397,0.7234,0.7234,0.7234,0,0,0.6134,0.6206,0.6258,0.6391,0.6454,0.6544,0.6524,0.662,0.6688,0.671,0.6831,0.6883,0.6978,0.7108,0.7169,0.7155,0.7357,0.7305,0.731,0.7318,0.7391,0.7406,0.742,0.7239,0.7238,0.7238,0,0,0.6238,0.63,0.6396,0.6459,0.6553,0.6598,0.6621,0.672,0.6755,0.6877,0.6894,0.6977,0.7137,0.7203,0.7258,0.7385,0.7395,0.7413,0.7461,0.7532,0.7545,0.7557,0.7602,0.7617,0.7425,0.7425,0.7425,0,0.6266,0.6401,0.6444,0.6539,0.6597,0.6618,0.6716,0.6776,0.6896,0.6936,0.6919,0.7119,0.7184,0.733,0.736,0.7404,0.7432,0.7402,0.7539,0.7552,0.7563,0.7607,0.7623,0.7426,0.7426,0.7426,0.7426,0,0.643,0.6523,0.6589,0.6702,0.6768,0.6864,0.6923,0.6984,0.7006,0.7052,0.7177,0.7255,0.7362,0.7399,0.7422,0.7548,0.7536,0.7528,0.7496,0.7579,0.7621,0.7638,0.7429,0.7428,0.7428,0.7427,0,0,0.6539,0.6673,0.6697,0.6748,0.6854,0.6928,0.7025,0.7127,0.7179,0.7261,0.7344,0.7478,0.7471,0.7533,0.7564,0.7626,0.7721,0.7611,0.7614,0.7629,0.7864,0.787,0.7888,0.7728,0.7731,0.7734,0.7856,0,0.6655,0.6826,0.6867,0.7015,0.7102,0.7122,0.7207,0.7281,0.7327,0.7409,0.7461,0.7554,0.7538,0.7575,0.7638,0.7696,0.7769,0.7688,0.7807,0.7811,0.7783,0.791,0.7916,0.8028,0.7873,0.7876,0.7878,0,0.6813,0.6896,0.7051,0.7144,0.7182,0.7257,0.7354,0.7431,0.7516,0.7545,0.7613,0.7637,0.774,0.7702,0.7844,0.7788,0.7839,0.7875,0.788,0.7894,0.785,0.7927,0.8065,0.8081,0.7904,0.7902,0.79,0,0.6876,0.7027,0.7139,0.7183,0.7294,0.7346,0.7396,0.7477,0.7536,0.7621,0.766,0.7756,0.7809,0.7884,0.7933,0.7901,0.8072,0.8038,0.81,0.8099,0.8136,0.8133,0.8283,0.8168,0.8168,0.8167,0.8167,0,0.7001,0.7095,0.7169,0.7238,0.7345,0.7391,0.7496,0.7545,0.7618,0.7698,0.7722,0.7797,0.7857,0.7941,0.798,0.8092,0.8116,0.8143,0.8153,0.8141,0.8138,0.8176,0.817,0.8172,0.8171,0.817,0.8169,0,0.709,0.7143,0.7267,0.7361,0.7387,0.7462,0.7543,0.7612,0.7657,0.7758,0.7785,0.7858,0.7957,0.8013,0.8139,0.8165,0.829,0.8295,0.826,0.8264,0.8323,0.8316,0.8504,0.8531,0.8397,0.8398,0.8399,0,0.7166,0.7239,0.734,0.7394,0.7444,0.7531,0.759,0.7639,0.77,0.7801,0.7858,0.7958,0.8041,0.8198,0.8263,0.8359,0.8368,0.8427,0.8382,0.8368,0.8369,0.8363,0.8371,0.8434,0.8436,0.8437,0.8437,0,0.7296,0.7318,0.7401,0.7494,0.7563,0.7639,0.7714,0.7758,0.7819,0.7887,0.7987,0.8051,0.8178,0.8277,0.8378,0.843,0.8445,0.845,0.847,0.8459,0.8435,0.8449,0.8281,0.8446,0.8445,0.8445,0.8444,0.8444,0.7381,0.7446,0.7527,0.7619,0.768,0.7749,0.7818,0.7871,0.7955,0.8061,0.8085,0.8191,0.8274,0.841,0.8465,0.8549,0.8539,0.8567,0.8574,0.858,0.8582,0.8421,0.8568,0.8568,0.8568,0.8567,0.8567,0,0.7511,0.7564,0.7648,0.7751,0.7823,0.7828,0.7912,0.7972,0.8064,0.814,0.822,0.8335,0.8431,0.8503,0.8601,0.8655,0.8664,0.8679,0.8676,0.8687,0.8586,0.8559,0.867,0.867,0.867,0.867,0.867,0.867,0.7587,0.7697,0.7729,0.787,0.7923,0.8025,0.8072,0.8136,0.8196,0.8323,0.8402,0.8448,0.8522,0.8625,0.8714,0.8733,0.8768,0.8782,0.8802,0.8706,0.8695,0.8684,0.8659,0.8789,0.879,0.8896,0.8897,0.8898]}]]